CZ-3C DEB, 40861

Orbit data source: Space-Track

CZ-3C DEB, 40861 is space debris in HEO originally from a launch on Fri, 24 Feb 2012 UTC launched from the Xichang Space Center, China (XSC). Debris objects in space refer to the collection of defunct objects orbiting the Earth. Examples of debris include non-operational satellites, rocket bodies, and fragments generated from explosions, collisions, or faulty payload assembly.

Loading next visibility...
Identifier
40861, 2012-008AB
Orbit
HEO
Country
Flag of CNCN / PRC
Related business
Manufacturer
CALT
Mission
Spacecraft
Bus & Motor
Unknown
Mass
Unknown
Launch date (UTC)
2012-02-24 (14 years ago)
Launch vehicle
Unknown
Launch site
Xichang Space Center, China (XSC)
Object type
Payload
Rocket body
Debris
Shape & HBR
Unknown shape, 0.1 m
Radar Cross Section
Medium (>0.1 m² and <1 m²)

Expand to show TLE details & history
Last TLE update: 3 months ago

TLE from 3 months ago
0 CZ-3C DEB
1 40861U 12008AB  26078.91347986 -.00000261  00000-0 -27578-2 0  9992
2 40861  21.2943   6.5741 7102767 220.3519  56.0436  2.28984746 94420
Epoch: 2026-03-19T21:55Z
TLE epoch observation values (Epoch: 2026-03-19T21:55:24.659Z)
Latitude
0.00021°
Longitude
-139.74972°
Altitude
19,941.066 km
Speed
3.728 km/s
True Right ascension
00h 26m 14s
True Declination
0° 00' 01"
Sunlit
Object was in daylight at epoch
Visualization orbit readout
Latitude
Unknown
Longitude
Unknown
Altitude
Unknown
Speed
Unknown
Apparent Right ascension
Unknown
Apparent Declination
Unknown
Sunlit
N/A
Visualization observer readout
Local Sidereal Time
13:01:59
Azimuth
Unknown
Elevation
Unknown
Doppler factor
Unknown
Orbital elements
Apogee altitude
35,213.422 km
Perigee altitude
667.532 km
Semi-major axis
24,318.614 km
Eccentricity
0.71028
Inclination
21.2943°
RAAN
6.5741°
Arg. of periapsis
220.3519°
True anomaly
139.64475°
Mean anomaly
56.0436°
Eccentric anomaly
96.4795°
Mean motion
0.57231 °/min
Orbital period
629.02 mins
BSTAR
-0.0027578
Loading maneuver chart data...
Computing Atmospheric mass density...
Loading historical data...
Loading historical data...
Loading historical data...
Loading historical data...
Loading historical data...
Loading historical data...
Loading historical data...

Documentation

Showing up to 5 results
|